{"data":{"norad_id":56353,"epoch":"2026-05-24T23:57:31.877568Z","epoch_age_seconds":78768,"freshness":"FRESH","line1":"1 56353U 23058AN  26144.99828562 -.00001032  00000+0 -67423-4 0  9999","line2":"2 56353  97.4469 144.9271 0004183 110.4075 249.7602 15.05652802169601","mean_motion":15.05652802,"eccentricity":0.0004183,"inclination_deg":97.4469,"raan_deg":144.9271,"arg_perigee_deg":110.4075,"mean_anomaly_deg":249.7602,"bstar":-6.7423e-5,"rev_number":16960,"period_min":95.639578931292,"perigee_km":546.60472756762,"apogee_km":552.40039082285,"semimajor_km":6927.6395591952,"source":"CELESTRAK","updated_at":"2026-05-25T13:38:18.007737Z"}}